STARLINK-34898, 65895

Orbit data source: Space-Track

STARLINK-34898, 65895 is a payload satellite owned by SpaceX/Seattle (US) in LEO that was launched on Tue, 07 Oct 2025 UTC via an FALCON 9 launch vehicle from the Air Force Eastern Test Range (AFETR). Payload-class satellites include a variety of spacecraft equipped with specific instruments for various scientific and technological missions. These include communications satellites like Starlink; space stations such as the ISS; scientific satellites like the Hubble; Earth observation satellites from companies like Planet Labs, Umbra, and HawkEye 360; GPS; miniature CubeSats for education and research; and military/defense satellites.

Loading next visibility...
Identifier
65895, 2025-224P
Orbit
LEO
Country
Flag of USUS
Related business
Manufacturer
SpaceX/Seattle
Mission
Operational spacecraft
Bus & Motor
STARLINK V2MO, Unknown motor
Mass
575 kg wet, ~530 kg dry
Launch date (UTC)
2025-10-07 (2 months ago)
Launch vehicle
FALCON 9
Launch site
Air Force Eastern Test Range (AFETR)
Object type
Payload
Rocket body
Debris
Shape & HBR
Unknown shape, 17.7 m
Radar Cross Section
RCS unknown

Expand to show TLE details & history
Last TLE update: 1 day ago

TLE from 1 day ago
0 STARLINK-34898
1 65895U 25224P   25338.58535429  .00060368  00000-0  20307-2 0  9997
2 65895  53.1627  93.0712 0001606  84.9472 275.1712 15.30249480 10314
Epoch: 2025-12-04T14:02Z
TLE epoch observation values (Epoch: 2025-12-04T14:02:54.610Z)
Latitude
-0.00004°
Longitude
168.70394°
Altitude
475.868 km
Speed
7.629 km/s
True Right ascension
06h 12m 17s
True Declination
0° 00' 00"
Sunlit
Object was in full shadow at epoch
Visualization orbit readout
Latitude
Unknown
Longitude
Unknown
Altitude
Unknown
Speed
Unknown
Apparent Right ascension
Unknown
Apparent Declination
Unknown
Sunlit
N/A
Visualization observer readout
Local Sidereal Time
12:14:10
Azimuth
Unknown
Elevation
Unknown
Doppler factor
Unknown
Orbital elements
Apogee altitude
476.424 km
Perigee altitude
474.223 km
Semi-major axis
6,853.46 km
Eccentricity
0.00016
Inclination
53.1627°
RAAN
93.0712°
Arg. of periapsis
84.9472°
True anomaly
275.15287°
Mean anomaly
275.1712°
Eccentric anomaly
275.16204°
Mean motion
3.82541 °/min
Orbital period
94.11 mins
BSTAR
0.0020307
Loading maneuver chart data...
Computing Atmospheric mass density...
Loading historical data...
Loading historical data...
Loading historical data...
Loading historical data...
Loading historical data...
Loading historical data...
Loading historical data...

Documentation

Showing up to 5 results
|